Wind_Speed
38 34 30 27 24 22 20 17 14 19 31 47 60 68 71 72 71 72 77 86 97 109 119 123 123 121 117 112 108 104 99 94 88 82 76 72 70 67
37 33 29 26 22 21 19 17 15 17 26 40 54 64 68 69 67 66 67 75 87 100 112 120 122 121 119 115 110 106 102 97 91 85 78 73 70 67
37 33 29 25 21 19 18 17 16 17 23 34 47 58 64 66 65 62 61 66 78 91 105 115 120 121 120 117 113 108 104 99 93 87 81 75 70 69
37 34 30 26 22 19 17 16 15 16 20 29 40 52 60 63 62 60 58 60 69 83 97 110 117 120 121 118 115 110 106 101 96 90 83 77 72 70
38 34 31 27 23 20 16 15 14 15 17 24 34 45 54 59 60 59 56 56 62 75 90 104 113 118 120 119 116 112 108 102 97 92 86 78 73 70
38 35 32 28 24 21 17 14 12 13 15 20 29 39 47 54 57 56 55 53 57 69 83 98 109 115 118 118 116 112 108 104 99 94 89 82 75 70
38 35 32 29 25 22 19 15 11 10 12 16 24 33 41 48 52 53 52 51 53 63 77 92 104 111 116 117 116 113 108 104 100 96 91 85 78 72
37 35 32 29 26 24 21 17 13 9 8 12 19 27 35 41 47 49 50 50 51 60 73 86 100 108 113 115 115 112 108 104 100 96 92 87 79 72
35 33 31 29 27 25 22 19 15 11 6 8 15 22 29 36 41 44 46 46 49 56 68 81 95 103 110 113 113 111 107 103 99 95 91 87 81 74
34 31 29 28 27 25 23 20 17 12 7 4 10 17 24 31 36 40 42 43 47 54 65 77 90 99 106 110 111 110 105 102 97 93 90 86 81 75
34 30 28 27 26 25 23 21 18 14 9 3 6 13 21 27 32 36 38 41 46 53 63 74 85 95 102 107 109 108 104 100 95 91 88 84 80 74
35 31 28 26 26 25 24 22 19 16 11 5 2 9 16 23 29 33 36 41 46 53 62 72 81 92 99 104 105 106 103 98 93 89 86 82 76 70
36 31 28 25 24 24 23 22 19 17 13 7 1 6 13 20 26 31 36 41 46 53 61 70 78 88 96 101 103 103 101 96 92 88 83 79 74 69
36 31 27 24 23 23 22 21 20 17 14 9 4 4 11 17 24 31 36 40 46 52 59 67 75 84 93 98 100 99 98 95 91 87 82 77 71 68
39 33 28 24 23 22 21 20 20 17 14 11 7 5 9 15 22 30 35 40 45 52 58 64 70 79 88 94 96 95 93 92 90 86 82 77 70 66
42 36 30 25 22 21 20 19 18 17 14 12 9 7 9 15 22 30 36 40 44 50 56 61 67 74 81 88 92 91 89 87 86 84 80 74 69 65
43 39 33 26 22 19 19 18 17 16 14 12 10 9 11 16 22 30 35 39 42 47 53 58 64 71 78 83 86 86 84 83 84 84 81 73 67 64
43 41 35 28 22 19 17 16 16 15 13 12 11 11 12 17 23 30 35 39 41 44 49 54 60 67 73 80 84 82 80 79 81 81 80 74 67 62
41 40 38 31 23 19 16 14 14 13 12 11 11 12 14 18 23 29 34 37 39 42 47 52 57 64 71 77 81 81 78 78 77 77 77 74 68 63
39 39 38 35 27 19 15 13 11 11 11 10 10 12 14 18 22 27 31 35 38 42 45 49 55 62 68 73 78 78 76 74 74 72 71 70 67 63
38 37 37 35 31 23 15 11 9 8 8 8 9 11 14 18 21 25 29 33 38 42 45 49 54 60 64 69 74 76 74 73 70 66 64 64 64 62
36 36 36 35 33 27 18 11 6 5 5 6 8 10 13 16 20 23 27 32 37 42 46 50 55 59 63 67 70 72 72 72 70 67 63 59 59 59
35 34 34 34 34 30 22 14 6 2 2 5 8 10 13 16 19 22 25 29 34 40 44 49 54 59 63 65 68 70 69 68 68 67 65 62 59 57
Wind_Direction
333 326 319 312 305 302 302 300 280 241 223 216 214 213 214 214 215 217 217 217 215 212 209 206 205 205 205 204 205 206 207 207 209 211 214 216 217 216
340 334 328 319 308 298 294 290 278 248 225 218 215 214 213 214 215 216 217 217 215 212 209 206 204 204 203 203 204 205 206 206 207 209 212 216 216 216
347 344 339 332 319 303 293 285 274 253 230 220 217 214 213 213 214 215 217 217 215 213 210 207 204 203 202 202 202 204 204 205 206 208 211 214 216 217
355 353 349 344 334 318 300 287 274 257 236 223 219 216 214 213 213 215 217 217 215 212 210 207 204 202 202 201 201 202 203 204 205 206 209 213 216 217
360 358 355 351 344 335 319 298 279 261 241 225 220 217 215 213 213 214 216 217 215 212 209 207 204 202 201 200 201 201 203 203 204 205 208 211 214 216
2 1 359 357 353 347 337 321 294 269 245 226 219 217 215 214 214 215 216 217 215 211 209 207 204 202 200 200 200 201 202 203 204 204 206 210 213 216
3 3 3 2 359 356 350 342 324 289 254 229 218 216 215 214 214 215 216 217 215 211 207 205 204 202 200 199 200 200 201 203 203 204 206 209 213 216
4 5 6 6 4 1 357 352 343 322 271 233 217 213 212 213 214 215 216 216 214 210 206 204 203 201 200 199 199 200 201 203 203 204 206 209 212 215
4 5 6 7 7 6 3 359 352 342 313 241 217 210 209 211 212 213 214 214 212 208 204 202 201 201 200 199 199 200 201 202 204 204 206 208 211 215
5 6 7 7 8 8 7 5 2 354 342 272 218 207 205 207 208 211 211 210 208 204 201 199 200 200 200 199 199 200 201 202 203 204 205 208 211 214
6 6 7 7 8 9 8 7 7 5 358 328 222 205 201 200 202 204 205 204 200 198 196 196 197 198 199 199 200 200 201 201 203 204 205 208 210 213
6 6 6 7 8 9 9 8 8 8 7 0 219 202 197 195 195 196 198 196 194 192 192 192 195 196 198 198 200 200 200 201 202 204 205 207 209 212
7 7 7 7 8 9 10 10 11 14 16 22 78 187 190 190 189 189 189 188 188 188 188 189 192 195 197 197 199 200 200 201 202 203 204 206 209 211
8 8 8 8 8 10 12 13 14 18 23 32 59 158 179 183 184 183 181 181 183 184 185 187 190 194 195 197 198 200 200 201 202 202 202 204 207 209
10 10 11 10 9 11 14 16 18 23 29 37 57 116 163 175 178 177 175 176 179 181 181 184 188 192 195 196 197 198 200 201 202 202 204 205 206 207
12 12 13 12 12 14 15 19 22 27 35 44 61 96 140 162 169 171 170 172 175 178 179 181 185 189 192 195 196 198 200 202 202 202 203 205 205 205
13 14 13 12 12 15 18 21 25 31 39 51 71 99 130 151 161 165 167 169 172 175 177 180 184 187 190 192 194 196 198 200 203 203 203 204 204 206
13 14 14 13 14 16 20 24 29 36 46 59 79 101 126 145 156 161 164 166 168 172 175 178 183 186 188 191 193 194 197 199 202 204 205 206 207 207
13 14 15 14 14 16 21 26 32 41 52 67 88 109 128 144 155 161 164 166 168 169 172 176 181 185 187 189 190 191 194 197 201 204 207 209 210 211
12 14 15 16 16 16 19 26 34 45 57 74 96 116 134 146 155 162 166 167 168 169 171 175 180 183 186 189 190 191 193 196 201 204 206 208 210 211
11 13 15 16 17 16 15 20 33 49 66 83 105 124 140 151 158 163 168 171 171 171 171 174 177 182 185 188 190 191 193 194 197 200 204 207 209 211
10 12 14 15 16 16 16 15 23 50 83 105 121 137 149 157 162 166 169 173 175 175 174 175 177 180 183 186 190 191 192 194 196 198 202 207 211 214
10 11 12 14 16 16 16 15 13 33 128 144 149 153 161 166 169 170 171 174 177 179 180 179 178 179 182 184 188 191 192 192 194 197 200 203 205 207
Height
5302 5294 5288 5284 5280 5276 5273 5269 5268 5268 5271 5277 5288 5300 5314 5329 5344 5359 5374 5389 5407 5427 5451 5477 5504 5531 5557 5581 5604 5626 5647 5665 5683 5699 5712 5725 5736 5747
5298 5291 5284 5279 5275 5272 5269 5267 5265 5265 5267 5272 5280 5291 5305 5320 5335 5350 5363 5377 5393 5412 5435 5460 5486 5512 5538 5564 5587 5610 5631 5651 5669 5686 5700 5714 5726 5737
5296 5288 5281 5275 5271 5268 5266 5264 5263 5262 5264 5268 5274 5284 5297 5312 5327 5341 5353 5366 5381 5399 5419 5443 5468 5494 5521 5546 5571 5594 5616 5637 5656 5674 5689 5702 5715 5727
5297 5288 5280 5274 5269 5265 5263 5261 5260 5260 5261 5265 5270 5280 5291 5305 5319 5332 5345 5356 5370 5386 5405 5428 5452 5478 5504 5531 5555 5579 5602 5623 5643 5662 5678 5692 5704 5716
5298 5289 5281 5274 5268 5264 5261 5259 5258 5258 5259 5262 5267 5275 5286 5298 5312 5324 5336 5348 5360 5375 5392 5414 5439 5464 5490 5516 5541 5565 5589 5612 5633 5651 5666 5681 5694 5706
5299 5291 5282 5275 5269 5265 5261 5258 5256 5256 5256 5259 5263 5271 5280 5292 5305 5317 5329 5340 5352 5365 5382 5403 5427 5451 5477 5504 5531 5554 5577 5597 5617 5637 5655 5670 5683 5695
5302 5293 5285 5277 5271 5266 5261 5258 5255 5254 5255 5257 5261 5267 5276 5286 5298 5310 5322 5333 5344 5356 5372 5393 5418 5443 5467 5492 5516 5540 5564 5585 5606 5625 5643 5659 5673 5685
5304 5296 5288 5281 5274 5268 5263 5259 5256 5254 5254 5255 5258 5264 5272 5281 5292 5303 5314 5325 5337 5348 5365 5385 5406 5431 5456 5482 5507 5530 5553 5574 5595 5614 5632 5649 5663 5676
5308 5300 5292 5285 5278 5272 5267 5262 5258 5255 5254 5255 5257 5261 5268 5276 5286 5298 5308 5319 5330 5342 5357 5378 5399 5424 5448 5473 5497 5520 5542 5564 5585 5604 5622 5638 5654 5667
5311 5303 5296 5289 5282 5276 5271 5266 5261 5258 5256 5255 5256 5260 5265 5272 5281 5291 5302 5313 5323 5335 5351 5372 5393 5418 5441 5465 5487 5510 5533 5554 5575 5595 5613 5629 5644 5657
5314 5307 5299 5292 5286 5279 5274 5269 5264 5261 5258 5257 5257 5259 5263 5269 5277 5286 5297 5307 5318 5331 5346 5366 5387 5411 5433 5457 5479 5502 5524 5546 5566 5586 5604 5620 5635 5648
5317 5309 5302 5296 5289 5283 5277 5272 5268 5264 5261 5259 5259 5260 5263 5268 5275 5283 5293 5303 5314 5327 5343 5362 5381 5403 5427 5449 5472 5494 5517 5538 5558 5577 5595 5611 5626 5639
5320 5312 5305 5299 5293 5287 5281 5276 5271 5267 5264 5262 5261 5262 5265 5269 5274 5282 5291 5301 5312 5325 5340 5358 5377 5398 5421 5443 5465 5487 5510 5531 5551 5569 5586 5603 5618 5632
5324 5316 5309 5302 5296 5291 5285 5280 5275 5271 5268 5265 5264 5265 5267 5270 5275 5282 5291 5301 5312 5324 5339 5356 5374 5394 5416 5438 5461 5483 5504 5524 5544 5562 5579 5595 5609 5623
5327 5318 5311 5305 5300 5295 5290 5285 5280 5276 5272 5270 5268 5268 5270 5273 5278 5284 5293 5303 5313 5325 5340 5356 5373 5391 5413 5435 5457 5478 5498 5518 5537 5555 5572 5587 5602 5615
5331 5322 5314 5308 5303 5299 5294 5289 5285 5281 5278 5275 5273 5273 5274 5278 5282 5288 5297 5306 5316 5328 5342 5357 5373 5392 5412 5433 5454 5475 5494 5513 5531 5549 5565 5579 5593 5607
5335 5326 5318 5312 5307 5302 5298 5294 5290 5287 5283 5281 5280 5279 5280 5283 5288 5294 5302 5311 5321 5332 5345 5359 5374 5392 5411 5431 5452 5471 5490 5508 5525 5542 5557 5571 5584 5598
5339 5331 5323 5316 5311 5306 5302 5299 5295 5292 5290 5287 5286 5286 5287 5290 5294 5301 5308 5316 5325 5336 5348 5361 5375 5391 5409 5428 5447 5467 5484 5502 5518 5534 5549 5564 5577 5590
5343 5335 5327 5320 5314 5310 5306 5303 5300 5298 5296 5294 5293 5293 5295 5298 5302 5307 5314 5321 5330 5340 5351 5363 5376 5391 5408 5425 5443 5462 5480 5496 5511 5526 5541 5557 5571 5584
5348 5340 5332 5325 5318 5313 5310 5307 5305 5303 5302 5301 5300 5301 5302 5305 5309 5314 5320 5327 5335 5344 5354 5365 5377 5390 5405 5422 5440 5457 5474 5490 5505 5520 5535 5549 5563 5576
5352 5344 5337 5329 5322 5317 5313 5311 5309 5308 5307 5306 5306 5307 5309 5312 5316 5320 5325 5332 5339 5347 5356 5367 5378 5391 5405 5421 5438 5454 5470 5485 5500 5515 5529 5542 5555 5567
5355 5348 5341 5334 5327 5321 5316 5313 5312 5311 5311 5311 5311 5313 5315 5318 5321 5325 5330 5336 5342 5350 5358 5368 5379 5391 5404 5419 5434 5450 5466 5481 5495 5509 5523 5537 5550 5563
5358 5351 5344 5338 5331 5325 5319 5316 5314 5313 5313 5314 5315 5316 5319 5322 5325 5329 5334 5339 5345 5352 5360 5369 5379 5390 5402 5416 5431 5446 5460 5475 5489 5502 5516 5529 5543 5557